Weather History for Ely, MN

Change the Weather History Date:

Sunday, November 24, 2013

  Actual Average Record
Temperature  
Mean Temperature 12 °F -  
Max Temperature 30 °F 29 °F 50 °F (2006)
Min Temperature -5 °F 17 °F -16 °F (1997)
Degree Days  
Heating Degree Days 52    
Moisture  
Dew Point 4 °F    
Average Humidity 67    
Maximum Humidity 92    
Minimum Humidity 49    
Precipitation  
Precipitation 0.00 in - - ()
Sea Level Pressure  
Sea Level Pressure 30.10 in    
Wind  
Wind Speed 6 mph (SSW)    
Max Wind Speed 20 mph    
Max Gust Speed 33 mph    
Visibility 10 miles    
Events      
Averages and records for this station are not official NWS values.
T = Trace of Precipitation, MM = Missing Value Source: NWS Daily Summary

Daily Weather History Graph

Daily Weather History Graph

Search for Another Location

Airport:

Trip Planner

Search our weather history database for the weather conditions in past years. The results will help you decide how hot, cold, wet, or windy it might be!

Date:

Astronomy

Nov. 24, 2013 Rise Set
Actual Time 7:26 AM CST 4:21 PM CST
Civil Twilight 6:51 AM CST 4:56 PM CST
Nautical Twilight 6:13 AM CST 5:34 PM CST
Astronomical Twilight 5:36 AM CST 6:11 PM CST
Moon 11:02 PM CST (11/24) 12:01 PM CST (11/24)
Length of Visible Light 10h 04m
Length of Day
8h 54m
Waning Gibbous, 60% of the Moon is Illuminated
Nov 24
Waning Gibbous
Nov 25
Last Quarter
Dec 2
New
Dec 9
First Quarter
Dec 17
Full

Hourly Weather History & Observations

Time (CST) Temp. Windchill Dew Point Humidity Pressure Visibility Wind Dir Wind Speed Gust Speed Precip Events Conditions
12:12 AM -4.0 °F - -7.6 °F 85% 30.55 in 10.0 mi Calm Calm - N/A   Clear
12:33 AM -5.8 °F - -9.4 °F 84% 30.55 in 10.0 mi Calm Calm - N/A   Clear
12:52 AM -5.8 °F - -7.6 °F 92% 30.54 in 10.0 mi Calm Calm - N/A   Clear
1:13 AM -5.8 °F - -7.6 °F 92% 30.52 in 10.0 mi Calm Calm - N/A   Clear
1:32 AM -5.8 °F -14.5 °F -9.4 °F 84% 30.53 in 10.0 mi SW 3.5 mph - N/A   Clear
1:53 AM -4.0 °F -12.4 °F -7.6 °F 85% 30.53 in 10.0 mi SSW 3.5 mph - N/A   Clear
2:13 AM -4.0 °F - -7.6 °F 85% 30.52 in 10.0 mi Calm Calm - N/A   Clear
2:32 AM -4.0 °F -12.4 °F -7.6 °F 85% 30.51 in 10.0 mi SSW 3.5 mph - N/A   Clear
2:53 AM -2.2 °F - -7.6 °F 78% 30.50 in 10.0 mi Calm Calm - N/A   Clear
3:12 AM -2.2 °F - -5.8 °F 85% 30.50 in 10.0 mi Calm Calm - N/A   Clear
3:33 AM -2.2 °F -10.4 °F -5.8 °F 85% 30.49 in 10.0 mi SSW 3.5 mph - N/A   Clear
3:53 AM -0.4 °F -8.3 °F -4.0 °F 85% 30.48 in 10.0 mi SSW 3.5 mph - N/A   Clear
4:12 AM -0.4 °F - -4.0 °F 85% 30.47 in 10.0 mi Calm Calm - N/A   Scattered Clouds
4:33 AM -0.4 °F - -4.0 °F 85% 30.46 in 10.0 mi Calm Calm - N/A   Scattered Clouds
4:53 AM -0.4 °F -8.3 °F -4.0 °F 85% 30.44 in 10.0 mi SE 3.5 mph - N/A   Clear
5:12 AM 1.4 °F -6.2 °F -2.2 °F 85% 30.44 in 10.0 mi SSE 3.5 mph - N/A   Mostly Cloudy
5:33 AM 1.4 °F -8.3 °F -2.2 °F 85% 30.43 in 10.0 mi SSE 4.6 mph - N/A   Overcast
5:53 AM 1.4 °F -8.3 °F -2.2 °F 85% 30.42 in 10.0 mi SSE 4.6 mph - N/A   Overcast
6:12 AM 1.4 °F -6.2 °F -0.4 °F 92% 30.41 in 10.0 mi SSE 3.5 mph - N/A   Overcast
6:33 AM 3.2 °F -7.8 °F -0.4 °F 85% 30.40 in 10.0 mi South 5.8 mph - N/A   Overcast
6:50 AM 3.2 °F -7.8 °F -0.4 °F 85% 30.39 in 10.0 mi South 5.8 mph - N/A   Overcast
7:13 AM 3.2 °F -7.8 °F -0.4 °F 85% 30.37 in 10.0 mi South 5.8 mph - N/A   Overcast
7:32 AM 5.0 °F -5.6 °F -0.4 °F 78% 30.36 in 10.0 mi South 5.8 mph - N/A   Overcast
7:53 AM 6.8 °F -4.8 °F 1.4 °F 79% 30.34 in 10.0 mi South 6.9 mph - N/A   Overcast
8:12 AM 6.8 °F -5.9 °F 1.4 °F 79% 30.33 in 10.0 mi South 8.1 mph - N/A   Overcast
8:33 AM 6.8 °F -5.9 °F 1.4 °F 79% 30.31 in 10.0 mi South 8.1 mph - N/A   Mostly Cloudy
8:52 AM 8.6 °F -3.7 °F 1.4 °F 73% 30.30 in 10.0 mi South 8.1 mph - N/A   Mostly Cloudy
9:13 AM 8.6 °F -4.7 °F 1.4 °F 73% 30.29 in 10.0 mi South 9.2 mph 16.1 mph N/A   Scattered Clouds
9:33 AM 10.4 °F -1.5 °F 1.4 °F 67% 30.27 in 10.0 mi South 8.1 mph - N/A   Clear
9:52 AM 10.4 °F -2.4 °F 1.4 °F 67% 30.24 in 10.0 mi South 9.2 mph 17.3 mph N/A   Clear
10:13 AM 10.4 °F -5.4 °F 1.4 °F 67% 30.23 in 10.0 mi South 13.8 mph - N/A   Clear
10:33 AM 12.2 °F -3.1 °F 1.4 °F 62% 30.20 in 10.0 mi South 13.8 mph 21.9 mph N/A   Clear
10:52 AM 12.2 °F -1.0 °F 1.4 °F 62% 30.17 in 10.0 mi South 10.4 mph 17.3 mph N/A   Clear
11:13 AM 12.2 °F -3.7 °F -0.4 °F 57% 30.14 in 10.0 mi South 15.0 mph 19.6 mph N/A   Clear
11:33 AM 14.0 °F -1.4 °F -0.4 °F 53% 30.12 in 10.0 mi South 15.0 mph 20.7 mph N/A   Clear
11:52 AM 14.0 °F -2.0 °F -0.4 °F 53% 30.08 in 10.0 mi South 16.1 mph 23.0 mph N/A   Clear
12:13 PM 15.8 °F 0.9 °F 1.4 °F 53% 30.04 in 10.0 mi South 15.0 mph 23.0 mph N/A   Clear
12:32 PM 17.6 °F 4.3 °F 1.4 °F 49% 30.02 in 10.0 mi South 12.7 mph 25.3 mph N/A   Clear
12:53 PM 17.6 °F 2.7 °F 3.2 °F 53% 30.00 in 10.0 mi SSW 16.1 mph 23.0 mph N/A   Clear
1:13 PM 17.6 °F 2.7 °F 5.0 °F 58% 29.97 in 10.0 mi South 16.1 mph 21.9 mph N/A   Clear
1:32 PM 19.4 °F 6.0 °F 6.8 °F 58% 29.95 in 10.0 mi South 13.8 mph 21.9 mph N/A   Clear
1:53 PM 19.4 °F 3.6 °F 6.8 °F 58% 29.91 in 10.0 mi South 19.6 mph 28.8 mph N/A   Clear
2:13 PM 19.4 °F 6.0 °F 6.8 °F 58% 29.90 in 10.0 mi South 13.8 mph 33.4 mph N/A   Clear
2:32 PM 19.4 °F 6.6 °F 6.8 °F 58% 29.90 in 10.0 mi South 12.7 mph 21.9 mph N/A   Clear
2:53 PM 21.2 °F 7.3 °F 6.8 °F 54% 29.88 in 10.0 mi South 16.1 mph 21.9 mph N/A   Clear
3:13 PM 21.2 °F 6.8 °F 6.8 °F 54% 29.85 in 10.0 mi South 17.3 mph 25.3 mph N/A   Clear
3:32 PM 21.2 °F 11.7 °F 6.8 °F 54% 29.89 in 10.0 mi SSW 8.1 mph 16.1 mph N/A   Clear
3:53 PM 21.2 °F 8.9 °F 8.6 °F 58% 29.87 in 10.0 mi South 12.7 mph 17.3 mph N/A   Clear
4:13 PM 21.2 °F 8.9 °F 8.6 °F 58% 29.86 in 10.0 mi SSW 12.7 mph 18.4 mph N/A   Scattered Clouds
4:32 PM 21.2 °F 10.1 °F 8.6 °F 58% 29.85 in 10.0 mi SSW 10.4 mph 17.3 mph N/A   Scattered Clouds
4:53 PM 23.0 °F 11.7 °F 8.6 °F 54% 29.86 in 10.0 mi SW 11.5 mph 16.1 mph N/A   Mostly Cloudy
5:13 PM 23.0 °F 12.4 °F 8.6 °F 54% 29.85 in 10.0 mi SSW 10.4 mph 16.1 mph N/A   Mostly Cloudy
5:32 PM 23.0 °F 11.1 °F 8.6 °F 54% 29.83 in 10.0 mi SSW 12.7 mph 16.1 mph N/A   Scattered Clouds
5:53 PM 24.8 °F 12.9 °F 8.6 °F 50% 29.83 in 10.0 mi SSW 13.8 mph 18.4 mph N/A   Mostly Cloudy
6:13 PM 24.8 °F 14.6 °F 10.4 °F 54% 29.82 in 10.0 mi SW 10.4 mph 16.1 mph N/A   Overcast
6:32 PM 24.8 °F 14.6 °F 10.4 °F 54% 29.81 in 10.0 mi SSW 10.4 mph - N/A   Overcast
6:53 PM 24.8 °F 14.0 °F 10.4 °F 54% 29.79 in 10.0 mi SSW 11.5 mph 18.4 mph N/A   Overcast
7:12 PM 24.8 °F 14.6 °F 10.4 °F 54% 29.78 in 10.0 mi SW 10.4 mph 20.7 mph N/A   Overcast
7:33 PM 26.6 °F 15.2 °F 12.2 °F 55% 29.77 in 10.0 mi SSW 13.8 mph 20.7 mph N/A   Overcast
7:53 PM 26.6 °F 16.8 °F 12.2 °F 55% 29.76 in 10.0 mi SW 10.4 mph 19.6 mph N/A   Overcast
8:12 PM 26.6 °F 15.2 °F 12.2 °F 55% 29.74 in 10.0 mi SW 13.8 mph 21.9 mph N/A   Overcast
8:33 PM 26.6 °F 15.7 °F 12.2 °F 55% 29.73 in 10.0 mi SSW 12.7 mph 23.0 mph N/A   Mostly Cloudy
8:52 PM 28.4 °F 18.5 °F 14.0 °F 55% 29.71 in 10.0 mi SW 11.5 mph 23.0 mph N/A   Scattered Clouds
9:13 PM 28.4 °F 17.5 °F 15.8 °F 59% 29.70 in 10.0 mi SW 13.8 mph 19.6 mph N/A   Scattered Clouds
9:33 PM 28.4 °F 19.1 °F 15.8 °F 59% 29.69 in 10.0 mi SSW 10.4 mph 20.7 mph N/A   Mostly Cloudy
9:53 PM 28.4 °F 17.5 °F 15.8 °F 59% 29.69 in 10.0 mi SW 13.8 mph 19.6 mph N/A   Overcast
10:13 PM 28.4 °F 16.6 °F 15.8 °F 59% 29.67 in 10.0 mi SSW 16.1 mph 21.9 mph N/A   Overcast
10:33 PM 30.2 °F 19.3 °F 17.6 °F 60% 29.66 in 10.0 mi SSW 15.0 mph 21.9 mph N/A   Overcast
10:53 PM 30.2 °F 20.2 °F 17.6 °F 60% 29.64 in 10.0 mi SSW 12.7 mph 20.7 mph N/A   Overcast
11:13 PM 30.2 °F 19.8 °F 17.6 °F 60% 29.63 in 10.0 mi SSW 13.8 mph 21.9 mph N/A   Overcast
11:32 PM 30.2 °F 19.3 °F 19.4 °F 64% 29.62 in 10.0 mi SW 15.0 mph 23.0 mph N/A   Mostly Cloudy
11:53 PM 30.2 °F 19.3 °F 19.4 °F 64% 29.62 in 10.0 mi SW 15.0 mph 21.9 mph N/A   Overcast